TimeHST,TemperatureF,Dew PointF,Humidity,Sea Level PressureIn,VisibilityMPH,Wind Direction,Wind SpeedMPH,Gust SpeedMPH,PrecipitationIn,Events,Conditions,WindDirDegrees,DateUTC
12:56 AM,65.8,64.9,97,30.01,10.0,East,5.8,-,N/A,,Clear,90,2013-05-09 10:56:00
1:56 AM,64.9,64.9,100,29.99,10.0,ENE,4.6,-,N/A,,Clear,70,2013-05-09 11:56:00
2:56 AM,64.9,64.9,100,29.99,10.0,ENE,5.8,-,N/A,,Clear,70,2013-05-09 12:56:00
3:56 AM,64.9,64.9,100,29.99,10.0,ENE,4.6,-,N/A,,Clear,60,2013-05-09 13:56:00
4:56 AM,64.9,63.9,96,30.00,10.0,East,4.6,-,N/A,,Clear,80,2013-05-09 14:56:00
5:56 AM,64.9,63.9,96,30.01,10.0,NE,3.5,-,N/A,,Clear,50,2013-05-09 15:56:00
6:49 AM,69.8,66.2,88,30.09,10.0,Calm,Calm,-,N/A,,Mostly Cloudy,0,2013-05-09 16:49:00
6:56 AM,70.0,68.0,93,30.03,10.0,Calm,Calm,-,N/A,,Scattered Clouds,0,2013-05-09 16:56:00
7:56 AM,74.8,66.9,76,30.04,10.0,Calm,Calm,-,N/A,,Clear,0,2013-05-09 17:56:00
8:21 AM,78.8,66.2,65,30.11,10.0,Variable,3.5,-,N/A,,Mostly Cloudy,0,2013-05-09 18:21:00
8:31 AM,78.8,68.0,69,30.11,10.0,Calm,Calm,-,N/A,,Mostly Cloudy,0,2013-05-09 18:31:00
8:42 AM,77.0,68.0,74,30.11,10.0,West,3.5,-,N/A,,Mostly Cloudy,270,2013-05-09 18:42:00
8:56 AM,79.0,68.0,69,30.05,10.0,West,4.6,-,N/A,,Mostly Cloudy,280,2013-05-09 18:56:00
9:16 AM,75.2,66.2,73,30.12,10.0,NW,4.6,-,N/A,,Partly Cloudy,310,2013-05-09 19:16:00
9:40 AM,75.2,66.2,73,30.12,10.0,Calm,Calm,-,N/A,,Mostly Cloudy,0,2013-05-09 19:40:00
9:56 AM,79.0,68.0,69,30.05,10.0,South,6.9,-,N/A,,Mostly Cloudy,170,2013-05-09 19:56:00
10:07 AM,78.8,68.0,69,30.11,10.0,South,6.9,-,N/A,,Mostly Cloudy,180,2013-05-09 20:07:00
10:47 AM,78.8,66.2,65,30.11,10.0,Calm,Calm,-,N/A,,Mostly Cloudy,0,2013-05-09 20:47:00
10:56 AM,78.8,66.2,65,30.11,10.0,SW,6.9,-,N/A,,Mostly Cloudy,220,2013-05-09 20:56:00
11:46 AM,82.4,66.2,58,30.10,10.0,WNW,5.8,-,N/A,,Scattered Clouds,300,2013-05-09 21:46:00
11:56 AM,82.9,68.0,60,30.04,10.0,West,10.4,-,N/A,,Partly Cloudy,270,2013-05-09 21:56:00
12:56 PM,82.9,68.0,60,30.02,10.0,Variable,5.8,-,N/A,,Clear,0,2013-05-09 22:56:00
1:56 PM,82.9,66.9,58,30.00,10.0,WNW,8.1,-,N/A,,Clear,290,2013-05-09 23:56:00
2:56 PM,81.9,66.9,60,29.99,10.0,West,9.2,-,N/A,,Mostly Cloudy,280,2013-05-10 00:56:00
3:56 PM,79.0,68.0,69,29.99,10.0,Variable,6.9,-,N/A,,Scattered Clouds,0,2013-05-10 01:56:00
4:56 PM,78.8,68.0,69,30.04,10.0,WNW,8.1,-,N/A,,Mostly Cloudy,290,2013-05-10 02:56:00
5:03 PM,78.8,68.0,69,30.04,10.0,WNW,6.9,-,N/A,,Scattered Clouds,300,2013-05-10 03:03:00
5:48 PM,78.8,66.2,65,30.05,10.0,WNW,8.1,-,N/A,,Overcast,290,2013-05-10 03:48:00
5:56 PM,77.9,66.9,69,30.00,10.0,West,8.1,-,N/A,,Mostly Cloudy,280,2013-05-10 03:56:00
6:21 PM,75.2,66.2,73,30.07,10.0,WNW,3.5,-,N/A,,Mostly Cloudy,290,2013-05-10 04:21:00
6:56 PM,73.9,66.9,79,30.02,10.0,Calm,Calm,-,N/A,,Mostly Cloudy,0,2013-05-10 04:56:00
7:03 PM,73.4,66.2,78,30.08,10.0,Calm,Calm,-,N/A,,Partly Cloudy,0,2013-05-10 05:03:00
7:56 PM,70.0,68.0,93,30.04,10.0,East,6.9,-,N/A,,Clear,90,2013-05-10 05:56:00
8:56 PM,68.0,66.9,96,30.06,10.0,East,5.8,-,N/A,,Clear,80,2013-05-10 06:56:00
9:56 PM,68.9,65.8,90,30.09,10.0,NNE,4.6,-,N/A,,Clear,20,2013-05-10 07:56:00
10:56 PM,71.6,68.0,88,30.15,10.0,NE,8.1,-,N/A,,Scattered Clouds,40,2013-05-10 08:56:00
11:05 PM,71.6,68.0,88,30.15,10.0,NE,8.1,-,N/A,,Mostly Cloudy,50,2013-05-10 09:05:00
11:20 PM,71.6,66.2,83,30.15,10.0,NE,8.1,-,N/A,,Scattered Clouds,40,2013-05-10 09:20:00
11:56 PM,70.0,65.8,87,30.07,10.0,ENE,5.8,-,N/A,,Clear,60,2013-05-10 09:56:00